Date,TemperatureHighF,TemperatureAvgF,TemperatureLowF,DewpointHighF,DewpointAvgF,DewpointLowF,HumidityHigh,HumidityAvg,HumidityLow,PressureMaxIn,PressureMinIn,WindSpeedMaxMPH,WindSpeedAvgMPH,GustSpeedMaxMPH,PrecipitationSumIn
2013-4-1,84.6,66.4,49.3,34.9,27.9,21.8,35,24,15,30.08,29.96,13,1,15,0.00
2013-4-2,82.6,63.5,49.1,29.2,23.8,19.2,36,23,11,30.03,29.93,18,2,23,0.00
2013-4-3,85.3,64.4,48.6,33.6,25.5,19.6,35,24,14,30.11,30.01,15,1,15,0.00
2013-4-4,88.4,66.4,49.8,32.7,26.3,21.5,38,24,13,30.16,30.03,10,1,11,0.00
2013-4-5,87.0,68.7,52.9,34.7,26.7,18.9,30,21,15,30.07,29.96,20,1,20,0.00
2013-4-6,84.7,67.4,53.2,37.9,32.3,28.5,40,28,17,30.06,29.94,16,2,17,0.00
2013-4-7,86.4,67.5,52.2,38.3,32.1,28.5,41,28,17,29.99,29.87,14,2,16,0.00
2013-4-8,74.5,63.6,52.3,38.9,33.4,27.4,43,33,22,29.87,29.56,33,8,43,0.49
2013-4-9,61.2,50.5,43.5,34.9,29.5,25.5,61,45,28,29.93,29.65,20,5,20,0.04
2013-4-10,71.3,54.2,39.4,31.0,25.6,21.3,50,34,22,30.03,29.92,15,2,17,0.00
2013-4-11,84.4,59.7,40.8,32.8,25.3,17.7,46,29,14,30.03,29.85,10,1,12,0.00
2013-4-12,78.6,61.8,49.3,30.6,25.5,20.6,34,26,17,29.94,29.83,9,1,12,0.00
2013-4-13,86.5,66.5,49.3,35.0,28.4,23.0,36,25,15,29.95,29.84,12,1,16,0.00
2013-4-14,78.8,65.8,56.5,35.4,31.3,27.1,39,28,18,29.91,29.83,16,4,18,0.00
2013-4-15,81.1,65.8,53.2,36.0,31.1,22.4,38,28,18,29.91,29.84,20,4,21,0.00
2013-4-16,79.3,66.1,54.1,38.6,30.4,25.0,44,28,15,29.92,29.85,17,3,28,0.00
2013-4-17,69.4,59.0,48.2,38.3,26.7,12.2,45,30,20,30.02,29.84,22,4,30,0.04
2013-4-18,75.7,56.0,39.9,24.5,15.4,9.7,30,21,13,30.15,30.01,9,1,13,0.00
2013-4-19,82.0,57.9,37.6,22.0,12.8,6.5,28,18,10,30.19,30.01,10,1,12,0.00
2013-4-20,86.5,63.0,42.4,27.0,15.7,6.7,23,16,10,30.07,29.97,13,1,15,0.00
2013-4-21,91.2,68.7,50.7,30.5,21.0,14.7,25,17,10,30.13,30.02,13,1,14,0.00
2013-4-22,90.5,70.5,52.2,32.8,22.9,15.6,26,17,11,30.08,29.94,15,1,15,0.00
2013-4-23,88.0,71.0,57.0,32.6,25.5,18.5,24,18,14,30.01,29.92,13,2,14,0.00
2013-4-24,89.0,70.7,53.8,35.0,26.8,21.8,30,20,13,30.04,29.95,13,2,14,0.00
2013-4-25,79.9,68.0,58.3,31.7,25.4,20.4,27,20,14,30.11,29.96,22,4,25,0.00
2013-4-26,89.4,66.4,47.3,30.7,23.7,17.2,35,22,10,30.18,30.07,8,0,58,0.00
2013-4-27,91.8,70.4,53.2,34.3,26.7,21.3,31,21,13,30.15,30.01,8,0,16,0.00
2013-4-28,94.8,73.3,55.6,33.6,25.0,19.5,27,17,10,30.05,29.91,8,0,9,0.00
2013-4-29,96.4,74.5,56.5,32.9,23.2,14.7,23,15,10,29.98,29.85,9,0,10,0.00
2013-4-30,91.6,74.5,58.3,33.8,27.5,20.6,25,18,13,29.96,29.88,16,3,18,0.00